Date String (YYYY-MM-DD hh:mm:ss) UTC,Instrument flags,Ambient pressure (hPa),Sample flow (lpm),Bypass flow (lpm),Sample temperature (°C),Ambient temperature (°C),ASC tube jacket temperature (°C),LED temperature (°C),Box temperature (°C),Sample RH (%),Span deviation,Mass concentration (μg/m³),Mass concentration (μg/m³),Mass concentration (μg/m³)
DateTimeUTC,F1_M11,P_M11,Q1_M11,Q2_M11,T1_M11,T2_M11,T3_M11,T4_M11,T5_M11,U1_M11,ZSPAN_M11,X0_M11,X2_M11,X1_M11
2023-03-10 14:00:00,,0819.7,5.00,0.00,21.6,19.6,00.0,30.5,23.0,16.5,-000.4,0017.83,0011.45,0011.08
2023-03-10 14:01:00,,0819.5,5.00,0.00,21.5,19.5,00.0,30.5,23.0,16.6,-000.4,0017.94,0011.43,0011.06
2023-03-10 14:02:00,,0819.8,5.02,0.00,21.6,20.6,00.0,30.5,23.2,16.5,-000.5,0018.01,0011.49,0011.10
2023-03-10 14:03:00,,0819.9,5.01,0.00,21.7,21.9,00.0,30.5,23.6,16.4,-000.7,0017.78,0011.47,0011.10
2023-03-10 14:04:00,,0819.6,5.00,0.00,21.8,22.4,00.0,30.5,23.8,16.3,-000.6,0017.56,0011.49,0011.12
2023-03-10 14:05:00,,0819.4,5.02,0.00,21.9,21.8,00.0,30.5,23.7,16.3,-000.7,0016.50,0011.51,0011.13
2023-03-10 14:06:00,,0819.8,5.00,0.00,21.8,21.3,00.0,30.5,23.6,16.3,-000.9,0016.66,0011.56,0011.17
2023-03-10 14:07:00,,0819.8,4.98,0.00,21.8,20.8,00.0,30.5,23.4,16.3,-001.0,0015.88,0011.60,0011.21
2023-03-10 14:08:00,,0819.6,5.00,0.00,21.7,20.2,00.0,30.5,23.1,16.4,-001.0,0015.86,0011.64,0011.25
2023-03-10 14:09:00,,0819.4,4.99,0.00,21.6,19.9,00.0,30.5,23.0,16.5,-001.2,0015.90,0011.68,0011.29
2023-03-10 14:10:00,,0819.4,5.01,0.00,21.6,19.8,00.0,30.5,23.0,16.6,-001.4,0015.96,0011.74,0011.35
2023-03-10 14:11:00,,0819.6,5.00,0.00,21.6,19.8,00.0,30.5,23.1,16.6,-001.4,0016.01,0011.81,0011.41
2023-03-10 14:12:00,,0819.7,5.01,0.00,21.6,19.8,00.0,30.5,23.1,16.6,-001.3,0016.26,0011.88,0011.47
2023-03-10 14:13:00,,0819.7,5.01,0.00,21.5,20.0,00.0,30.4,23.2,16.6,-001.2,0016.36,0011.92,0011.51
2023-03-10 14:14:00,,0819.8,4.97,0.00,21.7,21.3,00.0,30.4,23.5,16.6,-001.1,0016.49,0012.00,0011.57
2023-03-10 14:15:00,,0819.8,5.00,0.00,21.8,22.4,00.0,30.5,23.7,16.5,-001.1,0016.42,0012.02,0011.60
2023-03-10 14:16:00,,0819.6,5.01,0.00,21.9,22.7,00.0,30.5,23.9,16.5,-001.3,0016.33,0012.03,0011.63
2023-03-10 14:17:00,,0819.5,4.99,0.00,22.0,22.2,00.0,30.6,23.8,16.4,-001.3,0015.56,0012.07,0011.67
2023-03-10 14:18:00,,0819.6,4.99,0.00,22.0,21.7,00.0,30.6,23.8,16.4,-001.2,0015.44,0012.14,0011.73
2023-03-10 14:19:00,,0819.6,5.00,0.00,21.9,21.3,00.0,30.6,23.7,16.5,-001.2,0015.43,0012.17,0011.76
2023-03-10 14:20:00,,0819.8,5.01,0.00,21.9,21.0,00.0,30.6,23.6,16.5,-001.2,0015.54,0012.13,0011.74
2023-03-10 14:21:00,,0819.8,4.99,0.00,21.9,20.7,00.0,30.6,23.6,16.5,-001.0,0015.90,0012.11,0011.73
2023-03-10 14:22:00,,0819.8,5.00,0.00,21.9,20.5,00.0,30.6,23.5,16.6,-000.9,0015.89,0012.11,0011.73
2023-03-10 14:23:00,,0819.6,5.01,0.00,21.9,20.4,00.0,30.6,23.5,16.6,-000.8,0015.70,0012.16,0011.75
2023-03-10 14:24:00,,0819.6,5.00,0.00,21.9,20.3,00.0,30.6,23.5,16.6,-000.7,0015.61,0012.17,0011.77
2023-03-10 14:25:00,,0819.5,5.00,0.00,21.9,20.2,00.0,30.6,23.5,16.7,-000.6,0015.63,0012.16,0011.75
2023-03-10 14:26:00,,0819.5,5.01,0.00,21.8,20.1,00.0,30.6,23.5,16.7,-000.7,0016.02,0012.20,0011.77
2023-03-10 14:27:00,,0819.7,5.00,0.00,21.8,20.1,00.0,30.6,23.4,16.7,-000.7,0016.16,0012.23,0011.81
2023-03-10 14:28:00,,0819.6,5.00,0.00,21.8,20.1,00.0,30.6,23.4,16.8,-000.6,0016.18,0012.24,0011.81
2023-03-10 14:29:00,,0819.6,5.01,0.00,21.8,20.9,00.0,30.6,23.6,16.7,-000.6,0016.64,0012.25,0011.82
2023-03-10 14:30:00,,0819.6,4.98,0.00,22.0,22.2,00.0,30.6,23.9,16.7,-000.4,0016.83,0012.24,0011.82
2023-03-10 14:31:00,,0819.7,5.00,0.00,22.1,23.0,00.0,30.6,24.1,16.6,-000.3,0017.14,0012.20,0011.78
2023-03-10 14:32:00,,0819.8,5.00,0.00,22.2,22.6,00.0,30.7,24.1,16.5,-000.5,0016.99,0012.15,0011.73
2023-03-10 14:33:00,,0819.8,4.99,0.00,22.2,22.1,00.0,30.7,24.0,16.5,-000.5,0016.90,0012.08,0011.66
2023-03-10 14:34:00,,0819.8,5.01,0.00,22.2,21.8,00.0,30.7,24.0,16.6,-000.7,0017.54,0011.99,0011.60
2023-03-10 14:35:00,,0819.7,5.01,0.00,22.2,21.4,00.0,30.8,23.9,16.5,-000.9,0018.53,0011.96,0011.55
2023-03-10 14:36:00,,0819.8,5.01,0.00,22.1,21.2,00.0,30.8,23.8,16.5,-001.0,0018.62,0011.96,0011.55
2023-03-10 14:37:00,,0819.7,5.01,0.00,22.1,21.0,00.0,30.8,23.8,16.5,-000.9,0018.62,0011.94,0011.54
2023-03-10 14:38:00,,0819.7,5.00,0.00,22.1,20.8,00.0,30.8,23.7,16.5,-000.7,0018.68,0011.90,0011.49
2023-03-10 14:39:00,,0819.8,4.99,0.00,22.1,20.6,00.0,30.8,23.7,16.6,-000.7,0018.62,0011.86,0011.46
2023-03-10 14:40:00,,0819.9,4.99,0.00,22.1,20.5,00.0,30.8,23.7,16.6,-000.7,0018.27,0011.80,0011.40
2023-03-10 14:41:00,,0819.8,5.00,0.00,22.0,20.5,00.0,30.8,23.7,16.6,-001.1,0017.95,0011.74,0011.33
2023-03-10 14:42:00,,0819.7,5.01,0.00,22.0,20.4,00.0,30.8,23.7,16.6,-001.3,0017.83,0011.78,0011.33
2023-03-10 14:43:00,,0819.6,5.02,0.00,22.0,20.4,00.0,30.8,23.6,16.6,-001.2,0017.43,0011.79,0011.34
2023-03-10 14:44:00,,0819.6,5.00,0.00,22.0,20.3,00.0,30.8,23.6,16.7,-001.4,0017.48,0011.79,0011.34
2023-03-10 14:45:00,,0819.9,5.02,0.00,22.0,21.0,00.0,30.7,23.8,16.6,-001.5,0017.78,0011.83,0011.35
2023-03-10 14:46:00,,0819.9,4.99,0.00,22.1,22.3,00.0,30.8,24.1,16.6,-001.4,0016.86,0011.83,0011.36
2023-03-10 14:47:00,,0819.9,5.00,0.00,22.3,23.0,00.0,30.8,24.3,16.4,-001.4,0016.71,0011.80,0011.36
2023-03-10 14:48:00,,0819.7,5.01,0.00,22.3,22.7,00.0,30.8,24.3,16.3,-001.5,0016.73,0011.79,0011.35
2023-03-10 14:49:00,,0819.9,4.99,0.00,22.3,22.2,00.0,30.9,24.2,16.3,-001.6,0016.62,0011.81,0011.36
2023-03-10 14:50:00,,0819.9,4.99,0.00,22.3,21.8,00.0,30.9,24.1,16.3,-001.6,0016.89,0011.87,0011.39
2023-03-10 14:51:00,,0819.8,5.01,0.00,22.3,21.5,00.0,30.9,24.0,16.3,-001.5,0017.00,0011.92,0011.42
2023-03-10 14:52:00,,0819.6,4.99,0.00,22.3,21.2,00.0,30.9,24.0,16.3,-001.2,0016.96,0011.95,0011.46
2023-03-10 14:53:00,,0819.7,5.00,0.00,22.3,21.0,00.0,30.9,24.0,16.3,-001.0,0016.90,0011.98,0011.51
2023-03-10 14:54:00,,0819.8,4.99,0.00,22.3,20.9,00.0,30.9,23.9,16.4,-001.3,0016.98,0012.04,0011.54
2023-03-10 14:55:00,,0819.9,5.00,0.00,22.2,20.8,00.0,30.9,23.9,16.5,-001.3,0017.16,0012.10,0011.59
2023-03-10 14:56:00,,0819.7,4.99,0.00,22.2,20.7,00.0,30.9,23.9,16.5,-001.2,0016.55,0012.13,0011.62
2023-03-10 14:57:00,,0819.6,5.00,0.00,22.2,20.6,00.0,30.9,23.8,16.6,-001.2,0016.29,0012.13,0011.63
2023-03-10 14:58:00,,0819.7,5.02,0.00,22.2,20.5,00.0,30.9,23.8,16.5,-001.3,0016.29,0012.15,0011.65
2023-03-10 14:59:00,,0819.6,5.01,0.00,22.1,20.5,00.0,30.9,23.8,16.6,-001.4,0016.38,0012.17,0011.67
